Wind_Speed
10 10 10 10 11 10 10 9 10 10 10 10 10 10 9 9 8 7 7 6 6 6 6 6 6 6 5 5 5 5 5 5 4 4 5 5 5 5 5 5 5 6 6
10 10 10 10 10 10 10 10 11 11 11 10 10 10 10 10 9 8 8 7 7 7 7 6 6 6 6 5 5 5 5 5 5 5 5 6 6 6 5 5 4 5 7
11 11 10 11 11 11 11 11 11 11 11 10 10 10 10 10 10 8 8 8 8 7 7 7 7 6 6 6 5 5 5 5 5 5 5 6 6 6 6 5 5 6 7
12 11 11 11 11 11 11 11 11 12 12 11 11 11 11 10 10 9 9 8 8 8 8 8 7 7 6 6 5 5 5 5 5 6 6 6 6 6 6 6 6 7 7
12 11 11 11 11 11 12 12 12 12 12 12 12 12 12 11 11 10 10 9 9 9 9 8 8 8 7 6 6 6 6 5 5 6 6 6 6 7 7 7 8 8 9
12 11 11 11 11 11 12 12 12 12 12 12 12 12 12 11 11 11 11 10 10 10 10 9 9 8 8 7 7 7 6 7 7 7 7 7 8 8 8 8 9 9 9
12 12 12 11 11 11 11 11 12 12 12 12 12 11 11 11 11 12 11 11 11 10 10 10 9 8 8 8 8 8 8 8 8 8 8 8 8 8 9 9 10 10 10
13 13 13 12 12 12 11 11 12 12 11 11 11 11 11 12 12 12 12 11 11 11 10 9 9 9 9 9 9 9 9 9 9 9 8 8 9 9 10 10 10 11 11
14 14 13 13 13 13 13 13 13 13 11 11 11 11 12 12 11 11 12 12 11 11 10 10 11 10 10 9 9 9 10 10 10 10 10 10 11 11 11 11 10 11 12
15 14 14 14 13 14 14 13 13 13 13 12 12 12 12 12 11 11 12 12 12 11 11 11 11 11 11 11 10 10 11 11 11 11 11 11 12 12 12 12 12 12 13
15 15 15 15 15 15 15 14 14 13 13 13 12 12 12 12 12 12 12 12 12 11 11 11 12 12 12 12 11 11 11 12 12 12 12 13 13 13 12 12 13 14 14
15 16 16 16 15 15 15 15 15 14 14 14 13 13 12 13 13 12 12 13 13 13 13 13 13 13 13 13 13 12 12 12 12 13 13 13 14 14 14 14 14 15 15
16 16 16 16 16 15 15 15 15 15 15 14 14 14 14 14 14 13 13 14 15 15 15 14 14 14 14 15 14 14 13 13 14 14 14 14 15 15 15 15 15 15 16
16 16 16 16 16 16 16 15 15 15 15 15 15 15 15 15 15 15 14 15 15 15 15 15 15 15 15 15 16 16 15 15 15 15 15 15 16 16 16 15 15 16 17
17 16 17 17 16 16 16 16 15 15 15 15 16 16 16 16 15 15 15 16 16 15 16 16 17 16 16 16 16 17 17 16 16 16 16 16 17 17 16 16 16 17 17
18 17 17 17 16 16 16 16 16 16 16 16 17 17 17 17 17 16 17 17 17 17 17 18 18 17 17 17 17 17 17 18 17 17 17 17 18 18 18 18 18 18 18
19 18 17 17 17 16 17 17 17 17 17 17 18 18 18 18 19 18 18 18 19 19 19 19 19 18 18 18 19 19 19 20 19 19 19 19 19 19 18 18 18 18 19
19 19 19 18 18 18 18 18 18 18 18 19 19 19 19 19 20 20 19 19 20 20 20 20 20 20 20 20 20 21 20 20 20 19 19 19 19 18 18 19 20 20 20
19 19 19 19 19 19 19 19 19 19 19 19 20 20 20 19 19 18 19 20 20 20 20 20 20 21 20 20 20 20 20 20 20 20 20 19 19 19 19 20 20 21 22
20 20 20 20 20 20 20 20 20 19 19 19 19 20 19 19 20 20 20 20 20 20 20 21 21 21 21 21 21 21 20 20 20 21 21 20 21 21 21 21 21 22 22
21 21 21 21 21 21 21 21 20 20 20 20 20 21 21 21 21 21 21 20 20 20 21 21 21 21 21 21 21 20 20 20 21 21 21 22 22 22 22 23 23 23 24
22 22 21 21 22 22 22 22 22 21 21 22 22 22 22 21 22 22 22 22 21 21 21 21 21 21 21 22 21 21 21 21 22 22 22 23 23 23 23 23 23 23 24
23 23 23 22 22 23 23 23 23 22 23 23 23 23 23 23 22 23 23 23 22 22 22 21 21 21 22 22 22 22 22 22 22 22 23 23 23 24 23 23 24 25 25
25 24 24 24 24 24 24 23 23 23 23 23 23 23 23 23 23 23 23 24 23 23 23 22 22 22 22 22 22 22 22 22 23 22 23 23 24 24 25 26 26 26 26
26 25 25 25 25 25 24 24 24 24 23 23 23 23 24 23 24 24 24 24 24 24 24 23 23 22 22 22 22 23 23 24 24 24 24 24 25 25 26 26 27 28 28
25 25 25 25 25 25 25 25 25 25 25 24 24 23 23 23 23 23 24 24 24 24 25 24 23 23 23 23 23 24 25 25 25 25 25 26 26 27 27 28 28 28 29
Wind_Direction
254 254 255 255 254 257 258 259 257 256 256 259 259 262 269 276 280 281 282 289 291 285 280 284 287 286 285 288 283 280 279 274 278 280 277 277 280 279 277 278 281 283 286
254 256 256 255 253 255 254 255 253 258 262 264 263 262 267 274 276 274 275 279 284 279 276 280 284 287 286 287 285 281 279 270 273 278 278 278 280 280 280 277 276 279 287
255 254 256 256 255 256 254 256 256 259 263 264 264 264 267 270 268 267 273 277 277 273 274 274 278 282 283 284 283 277 277 272 269 271 275 278 279 278 281 279 281 287 293
257 254 257 260 260 257 256 257 259 258 260 263 265 265 265 264 264 265 270 276 275 273 273 273 276 276 275 277 280 273 273 272 270 270 273 279 280 280 286 283 286 291 293
257 256 258 259 258 256 255 257 259 258 260 262 266 266 263 261 263 264 266 270 269 271 273 274 275 273 271 273 276 270 263 268 272 276 278 278 278 280 284 286 286 289 291
256 255 257 259 260 259 258 256 259 261 262 263 266 267 263 261 262 263 265 266 267 270 271 273 273 269 271 273 273 268 264 267 271 275 281 283 283 285 286 289 289 289 290
256 254 255 257 259 260 261 258 261 263 265 266 265 263 262 260 262 263 264 264 266 270 271 269 267 268 272 274 271 267 265 267 271 275 281 283 285 287 288 291 289 289 290
259 256 254 254 256 258 261 263 262 263 264 265 262 261 261 261 262 263 263 265 267 268 266 264 264 268 270 270 269 267 268 270 270 273 279 284 286 287 289 291 289 287 288
259 256 254 255 256 258 262 266 266 262 262 264 263 263 259 260 262 261 261 264 266 267 265 265 268 269 268 268 270 269 270 272 272 272 277 282 285 288 291 289 286 288 291
256 252 254 257 259 259 261 263 266 265 263 264 264 263 259 258 260 260 260 261 261 261 265 267 269 267 268 269 268 267 268 271 273 274 278 282 284 286 288 289 291 291 291
252 252 255 258 260 259 260 261 263 267 267 266 266 263 261 257 257 260 262 262 260 261 265 268 269 271 269 268 268 267 269 271 273 276 278 281 285 286 288 289 291 293 293
252 253 255 258 259 259 258 261 262 265 266 267 267 265 264 259 258 261 262 263 264 265 265 267 271 272 271 270 268 268 269 270 271 274 277 281 284 286 287 288 289 292 293
252 253 256 258 258 258 259 262 263 263 266 268 267 265 264 262 261 262 264 264 264 265 266 269 273 273 270 269 269 269 269 268 270 272 276 280 283 284 285 286 287 290 292
253 253 254 257 259 260 262 263 262 263 265 266 266 265 263 262 263 264 265 264 263 264 266 268 273 275 271 269 268 269 269 269 269 272 275 279 282 285 287 287 288 290 291
257 255 253 254 257 259 262 262 261 263 264 265 265 266 265 264 263 264 264 264 263 264 266 268 271 273 271 271 270 270 269 271 271 271 274 278 282 285 287 288 289 291 293
256 258 257 255 257 260 264 266 265 263 262 265 267 267 266 265 263 263 264 264 265 266 267 269 270 271 271 271 272 270 270 273 274 273 275 277 279 281 284 286 289 292 294
254 256 257 256 258 260 263 267 268 267 264 264 265 266 265 264 265 265 264 265 266 267 268 269 269 268 270 271 272 271 272 274 274 274 275 277 281 281 282 283 287 291 294
256 258 259 259 258 260 263 267 269 266 264 263 264 264 263 263 264 265 265 265 266 267 268 268 268 267 268 271 272 273 273 273 275 275 275 277 278 280 282 283 287 289 292
256 257 258 260 261 262 263 265 268 269 267 264 265 265 264 263 264 266 267 267 267 268 268 266 267 268 269 271 274 274 273 270 272 274 275 277 278 280 281 283 287 290 291
254 257 258 260 261 263 263 265 267 268 268 267 266 265 265 264 266 266 268 269 269 268 267 268 268 270 270 271 274 275 273 271 273 275 276 278 280 281 283 285 287 289 291
252 255 257 258 260 262 262 263 265 266 267 268 267 267 268 266 266 266 267 268 268 268 268 267 268 269 269 270 273 277 274 274 275 276 276 278 279 279 281 284 286 288 290
254 255 256 257 259 260 261 263 265 265 266 267 268 268 268 269 268 267 266 266 267 268 268 268 268 268 269 271 273 275 276 276 278 276 275 277 278 280 281 282 284 288 291
255 256 256 257 259 261 262 264 264 264 265 266 267 267 268 269 268 268 267 265 266 267 267 267 267 268 270 272 272 273 274 277 277 274 275 276 277 280 282 283 285 288 290
255 256 257 258 260 262 263 263 262 263 264 265 266 266 266 267 269 267 267 265 265 267 267 266 266 268 271 273 272 272 273 275 275 274 275 277 278 280 281 283 286 289 291
255 255 257 259 260 262 262 262 262 261 262 264 265 266 267 269 269 269 267 266 266 266 265 265 266 268 270 271 271 272 275 276 276 275 275 277 279 280 282 284 286 288 290
256 256 257 258 259 260 261 262 262 262 262 263 264 265 267 268 268 267 266 266 266 266 264 264 266 267 268 269 272 273 274 276 277 277 277 278 280 282 283 285 286 288 290
Height
5860 5860 5861 5861 5861 5861 5861 5862 5862 5862 5862 5862 5862 5862 5862 5862 5862 5862 5861 5861 5860 5860 5859 5859 5859 5859 5858 5858 5857 5857 5857 5857 5857 5857 5856 5856 5856 5856 5856 5856 5855 5855 5855
5858 5858 5858 5859 5859 5859 5859 5860 5860 5860 5860 5860 5860 5860 5860 5860 5860 5860 5860 5859 5859 5858 5858 5858 5858 5857 5857 5857 5856 5856 5855 5855 5855 5856 5855 5855 5855 5854 5854 5854 5854 5853 5853
5856 5856 5856 5856 5856 5856 5857 5857 5857 5857 5857 5857 5857 5858 5858 5858 5858 5858 5858 5857 5857 5857 5856 5856 5856 5856 5856 5855 5855 5855 5854 5854 5854 5854 5854 5854 5853 5853 5853 5853 5853 5852 5852
5853 5853 5853 5854 5854 5854 5854 5855 5855 5855 5855 5855 5855 5855 5855 5855 5856 5856 5856 5856 5855 5855 5855 5854 5854 5854 5854 5854 5853 5853 5853 5853 5853 5852 5852 5852 5852 5852 5852 5851 5851 5850 5850
5851 5851 5851 5851 5851 5852 5852 5852 5852 5852 5853 5853 5853 5853 5853 5853 5853 5853 5853 5853 5853 5853 5853 5853 5852 5852 5852 5852 5852 5851 5851 5851 5851 5851 5851 5850 5850 5850 5850 5849 5849 5849 5848
5848 5848 5848 5849 5849 5849 5849 5849 5850 5850 5850 5850 5850 5850 5850 5850 5851 5851 5851 5851 5851 5851 5851 5851 5850 5850 5850 5850 5850 5850 5850 5849 5849 5849 5849 5849 5848 5848 5848 5847 5847 5846 5846
5845 5845 5846 5846 5846 5847 5847 5847 5847 5847 5847 5847 5847 5847 5848 5848 5848 5848 5848 5849 5849 5849 5848 5848 5848 5848 5848 5848 5848 5848 5848 5847 5848 5847 5847 5847 5846 5846 5845 5845 5844 5844 5843
5842 5842 5843 5844 5844 5844 5844 5844 5844 5844 5844 5844 5844 5845 5845 5845 5845 5845 5846 5846 5846 5846 5846 5846 5846 5846 5846 5846 5846 5846 5845 5845 5845 5845 5845 5844 5844 5843 5843 5842 5842 5841 5841
5839 5839 5840 5840 5841 5841 5841 5841 5841 5841 5841 5841 5841 5841 5842 5842 5842 5842 5843 5843 5843 5844 5843 5843 5843 5843 5843 5843 5843 5843 5843 5843 5842 5842 5842 5842 5841 5840 5840 5839 5839 5839 5838
5835 5835 5836 5837 5837 5837 5838 5838 5838 5838 5838 5838 5838 5838 5839 5839 5839 5840 5840 5840 5840 5841 5841 5841 5841 5841 5840 5840 5840 5840 5840 5840 5840 5839 5839 5839 5838 5838 5837 5836 5836 5835 5835
5832 5832 5832 5833 5833 5834 5834 5834 5835 5834 5835 5835 5835 5836 5836 5836 5836 5837 5837 5837 5838 5838 5838 5838 5838 5838 5838 5837 5837 5837 5837 5837 5837 5836 5836 5836 5835 5834 5834 5833 5833 5832 5831
5828 5828 5829 5829 5830 5830 5831 5831 5831 5831 5831 5831 5832 5832 5832 5833 5833 5833 5834 5834 5834 5834 5835 5835 5835 5834 5834 5834 5834 5834 5833 5833 5833 5833 5833 5832 5832 5831 5830 5830 5829 5828 5827
5824 5824 5825 5825 5826 5826 5827 5827 5827 5827 5828 5828 5828 5828 5829 5829 5829 5830 5830 5830 5830 5831 5831 5831 5831 5831 5831 5831 5830 5830 5830 5830 5829 5829 5829 5829 5828 5827 5827 5826 5825 5824 5823
5820 5820 5821 5821 5822 5822 5822 5823 5823 5823 5823 5824 5824 5824 5824 5825 5825 5826 5826 5826 5826 5827 5827 5827 5827 5827 5826 5826 5826 5826 5826 5826 5826 5825 5825 5824 5824 5823 5822 5822 5821 5820 5819
5815 5816 5816 5816 5817 5817 5818 5818 5818 5819 5819 5820 5820 5820 5820 5821 5821 5821 5821 5822 5822 5822 5822 5822 5822 5822 5822 5822 5822 5822 5822 5822 5821 5821 5821 5820 5819 5819 5818 5817 5817 5816 5815
5810 5810 5811 5811 5812 5813 5813 5814 5814 5814 5814 5815 5815 5815 5815 5816 5816 5816 5817 5817 5817 5817 5817 5818 5818 5817 5817 5817 5817 5817 5817 5817 5817 5816 5816 5815 5815 5814 5813 5813 5812 5811 5810
5804 5805 5806 5806 5807 5808 5808 5809 5809 5809 5809 5810 5810 5810 5811 5811 5811 5812 5812 5812 5812 5812 5812 5812 5812 5812 5812 5812 5812 5812 5812 5812 5811 5811 5811 5811 5810 5809 5808 5808 5807 5806 5804
5798 5799 5800 5801 5801 5802 5802 5803 5803 5804 5804 5804 5804 5805 5805 5805 5806 5806 5806 5806 5806 5806 5806 5806 5806 5806 5806 5806 5806 5806 5806 5806 5806 5806 5806 5805 5805 5804 5803 5803 5802 5801 5799
5792 5793 5794 5795 5796 5796 5796 5797 5798 5798 5798 5798 5799 5799 5799 5799 5800 5800 5800 5800 5800 5800 5800 5800 5800 5800 5800 5800 5800 5800 5800 5800 5800 5800 5800 5800 5799 5799 5798 5797 5796 5795 5793
5786 5787 5788 5789 5790 5790 5790 5791 5791 5792 5792 5792 5793 5793 5793 5793 5794 5794 5794 5794 5794 5794 5794 5794 5794 5794 5794 5794 5794 5793 5793 5794 5794 5794 5794 5794 5793 5793 5792 5791 5790 5789 5787
5779 5780 5781 5782 5783 5784 5784 5785 5785 5785 5786 5786 5787 5787 5787 5787 5787 5787 5787 5787 5788 5788 5788 5788 5788 5788 5788 5788 5787 5787 5787 5787 5787 5787 5787 5787 5787 5787 5786 5785 5784 5782 5781
5772 5773 5774 5775 5776 5777 5778 5778 5778 5779 5779 5780 5780 5780 5780 5780 5780 5780 5781 5781 5781 5781 5781 5782 5782 5782 5782 5782 5781 5781 5781 5780 5780 5780 5780 5780 5780 5780 5779 5778 5777 5776 5774
5765 5766 5767 5769 5769 5770 5771 5771 5772 5772 5772 5773 5773 5773 5774 5774 5773 5773 5774 5774 5774 5774 5775 5775 5775 5775 5775 5775 5775 5774 5774 5774 5774 5774 5774 5774 5773 5773 5772 5771 5770 5769 5767
5758 5759 5760 5761 5762 5763 5764 5764 5764 5765 5765 5766 5766 5766 5767 5767 5766 5766 5766 5767 5767 5767 5768 5768 5769 5769 5769 5768 5768 5767 5767 5767 5767 5767 5767 5767 5767 5766 5766 5765 5763 5762 5760
5750 5751 5752 5754 5754 5755 5756 5756 5757 5757 5758 5759 5759 5759 5759 5759 5759 5759 5759 5760 5760 5760 5761 5761 5762 5762 5762 5762 5761 5761 5761 5760 5760 5760 5760 5760 5760 5759 5758 5757 5756 5754 5752
5742 5743 5744 5746 5746 5747 5748 5749 5749 5750 5750 5751 5751 5751 5752 5752 5752 5752 5753 5752 5753 5753 5753 5754 5754 5755 5755 5755 5755 5754 5754 5754 5753 5753 5753 5752 5752 5751 5750 5749 5748 5746 5744